ANA1644 RJOM-RJOO

Flight info

Callsign ANA1644
Flight time 0h 43m
Altitude 27000
Route SAKAR ROSIE Y231 MIRIO Y401 KAINA Y753 IZUMI
Aircraft B738/M-SDE2E3FGHIRWXY/LB1

Departure

Time 2026-04-15 05:19
Airport Matsuyama Airport (RJOM)

Arrival

Time 2026-04-15 06:03
Airport Osaka Itami International Airport (RJOO)
Time Latitude Longitude Altitude Speed Heading
2026-04-15 05:02 33.82798 132.70420 24 ft 0 kts 41°
2026-04-15 05:12 33.82781 132.70402 20 ft 4 kts 41°
2026-04-15 05:12 33.82761 132.70380 37 ft 4 kts 41°
2026-04-15 05:12 33.82740 132.70359 30 ft 4 kts 41°
2026-04-15 05:13 33.82721 132.70338 28 ft 4 kts 50°
2026-04-15 05:13 33.82710 132.70311 30 ft 4 kts 92°
2026-04-15 05:13 33.82717 132.70282 26 ft 4 kts 123°
2026-04-15 05:13 33.82723 132.70271 28 ft 0 kts 130°
2026-04-15 05:15 33.82722 132.70272 28 ft 1 kts 130°
2026-04-15 05:15 33.82699 132.70305 28 ft 9 kts 130°
2026-04-15 05:16 33.82655 132.70367 24 ft 10 kts 130°
2026-04-15 05:16 33.82611 132.70429 24 ft 10 kts 130°
2026-04-15 05:16 33.82568 132.70489 24 ft 9 kts 130°
2026-04-15 05:16 33.82527 132.70548 25 ft 9 kts 130°
2026-04-15 05:17 33.82486 132.70605 26 ft 9 kts 131°
2026-04-15 05:17 33.82444 132.70661 26 ft 9 kts 131°
2026-04-15 05:17 33.82393 132.70730 28 ft 13 kts 131°
2026-04-15 05:17 33.82324 132.70824 25 ft 17 kts 131°
2026-04-15 05:18 33.82247 132.70941 26 ft 18 kts 128°
2026-04-15 05:18 33.82147 132.71017 27 ft 18 kts 185°
2026-04-15 05:18 33.82057 132.70969 26 ft 13 kts 244°
2026-04-15 05:18 33.82080 132.70867 24 ft 14 kts 306°
2026-04-15 05:19 33.82231 132.70654 26 ft 67 kts 310°
2026-04-15 05:19 33.82689 132.70012 23 ft 132 kts 311°
2026-04-15 05:19 33.83366 132.69055 324 ft 156 kts 311°
2026-04-15 05:19 33.83960 132.68005 1108 ft 156 kts 286°
2026-04-15 05:20 33.83924 132.66614 1512 ft 174 kts 255°
2026-04-15 05:20 33.83424 132.65380 2425 ft 161 kts 232°
2026-04-15 05:20 33.82569 132.64457 3019 ft 164 kts 209°
2026-04-15 05:20 33.81563 132.63926 3884 ft 154 kts 197°
2026-04-15 05:21 33.80482 132.63634 4351 ft 174 kts 186°
2026-04-15 05:21 33.79216 132.63540 4913 ft 185 kts 180°
2026-04-15 05:21 33.77975 132.63797 5786 ft 178 kts 167°
2026-04-15 05:21 33.76801 132.64359 6397 ft 191 kts 158°
2026-04-15 05:22 33.75617 132.65276 6644 ft 218 kts 140°
2026-04-15 05:22 33.74482 132.66608 6803 ft 238 kts 148°
2026-04-15 05:22 33.72968 132.67618 6998 ft 260 kts 161°
2026-04-15 05:22 33.71198 132.68346 7430 ft 274 kts 168°
2026-04-15 05:23 33.69329 132.68921 8097 ft 280 kts 171°
2026-04-15 05:23 33.67434 132.69526 8909 ft 288 kts 161°
2026-04-15 05:23 33.65739 132.70883 9814 ft 297 kts 144°
2026-04-15 05:23 33.64085 132.72450 10480 ft 311 kts 146°
2026-04-15 05:24 33.62295 132.74095 10664 ft 337 kts 146°
2026-04-15 05:24 33.60373 132.75880 10839 ft 361 kts 142°
2026-04-15 05:24 33.58766 132.78302 11138 ft 385 kts 117°
2026-04-15 05:24 33.58111 132.81434 11782 ft 394 kts 92°
2026-04-15 05:25 33.58470 132.84701 12585 ft 396 kts 77°
2026-04-15 05:25 33.59124 132.87927 13311 ft 401 kts 76°
2026-04-15 05:25 33.59815 132.91192 13916 ft 408 kts 76°
2026-04-15 05:25 33.60519 132.94518 14518 ft 414 kts 76°
2026-04-15 05:26 33.61209 132.97839 15306 ft 417 kts 76°
2026-04-15 05:26 33.61903 133.01243 16086 ft 423 kts 76°
2026-04-15 05:26 33.62604 133.04740 16762 ft 429 kts 77°
2026-04-15 05:26 33.63288 133.08188 17419 ft 432 kts 77°
2026-04-15 05:27 33.63987 133.11714 18072 ft 436 kts 77°
2026-04-15 05:27 33.64687 133.15268 18615 ft 440 kts 77°
2026-04-15 05:27 33.65394 133.18861 19159 ft 443 kts 77°
2026-04-15 05:27 33.66089 133.22473 19679 ft 447 kts 77°
2026-04-15 05:28 33.66793 133.26130 20052 ft 454 kts 77°
2026-04-15 05:28 33.67502 133.29849 20519 ft 458 kts 76°
2026-04-15 05:28 33.68254 133.33577 21069 ft 460 kts 76°
2026-04-15 05:28 33.69004 133.37331 21650 ft 464 kts 76°
2026-04-15 05:29 33.69750 133.41115 22342 ft 469 kts 76°
2026-04-15 05:29 33.70500 133.44961 22896 ft 477 kts 77°
2026-04-15 05:29 33.71253 133.48849 23523 ft 479 kts 77°
2026-04-15 05:29 33.71897 133.52795 23929 ft 483 kts 80°
2026-04-15 05:30 33.72431 133.56781 24326 ft 484 kts 82°
2026-04-15 05:30 33.72920 133.60793 24664 ft 488 kts 82°
2026-04-15 05:30 33.73404 133.64852 25014 ft 493 kts 81°
2026-04-15 05:30 33.73899 133.68939 25363 ft 496 kts 81°
2026-04-15 05:31 33.74410 133.73048 25701 ft 499 kts 81°
2026-04-15 05:31 33.74935 133.77182 26032 ft 502 kts 81°
2026-04-15 05:31 33.75468 133.81338 26552 ft 504 kts 81°
2026-04-15 05:31 33.76001 133.85499 26830 ft 504 kts 81°
2026-04-15 05:32 33.76534 133.89670 26845 ft 506 kts 81°
2026-04-15 05:32 33.77071 133.93865 26836 ft 509 kts 81°
2026-04-15 05:32 33.77427 133.96657 26853 ft 511 kts 81°
2026-04-15 05:32 33.77957 134.00885 26819 ft 512 kts 81°
2026-04-15 05:33 33.78662 134.06470 26842 ft 509 kts 81°
2026-04-15 05:33 33.79195 134.10672 26842 ft 509 kts 81°
2026-04-15 05:33 33.79726 134.14886 26859 ft 509 kts 81°
2026-04-15 05:33 33.80253 134.19099 26838 ft 511 kts 81°
2026-04-15 05:34 33.80915 134.23292 26853 ft 510 kts 74°
2026-04-15 05:34 33.81613 134.26053 26862 ft 510 kts 69°
2026-04-15 05:34 33.83061 134.29942 26859 ft 509 kts 61°
2026-04-15 05:34 33.84691 134.33727 26847 ft 511 kts 61°
2026-04-15 05:35 33.86329 134.37511 26842 ft 511 kts 61°
2026-04-15 05:35 33.87943 134.41311 26824 ft 509 kts 62°
2026-04-15 05:35 33.89527 134.45119 26841 ft 507 kts 62°
2026-04-15 05:35 33.91090 134.48916 26834 ft 507 kts 62°
2026-04-15 05:36 33.92655 134.52723 26670 ft 508 kts 62°
2026-04-15 05:36 33.94222 134.56508 25722 ft 511 kts 62°
2026-04-15 05:36 33.95813 134.60327 24749 ft 510 kts 62°
2026-04-15 05:36 33.97404 134.64150 23906 ft 508 kts 62°
2026-04-15 05:37 33.98978 134.67943 23031 ft 504 kts 62°
2026-04-15 05:37 34.00535 134.71705 22170 ft 498 kts 62°
2026-04-15 05:37 34.02054 134.75412 21392 ft 491 kts 63°
2026-04-15 05:37 34.03551 134.79092 20621 ft 484 kts 63°
2026-04-15 05:38 34.05017 134.82709 19870 ft 478 kts 63°
2026-04-15 05:38 34.06467 134.86292 19121 ft 473 kts 64°
2026-04-15 05:38 34.07904 134.89839 18432 ft 466 kts 64°
2026-04-15 05:38 34.09319 134.93335 17562 ft 459 kts 64°
2026-04-15 05:39 34.10700 134.96748 16752 ft 450 kts 64°
2026-04-15 05:39 34.12064 135.00122 16014 ft 445 kts 64°
2026-04-15 05:39 34.13415 135.03466 15279 ft 441 kts 64°
2026-04-15 05:39 34.14750 135.06774 14545 ft 437 kts 64°
2026-04-15 05:40 34.16079 135.10069 13804 ft 435 kts 64°
2026-04-15 05:40 34.17396 135.13339 13076 ft 431 kts 64°
2026-04-15 05:40 34.18698 135.16575 12411 ft 426 kts 64°
2026-04-15 05:40 34.19968 135.19731 11741 ft 410 kts 63°
2026-04-15 05:41 34.21403 135.22652 11153 ft 397 kts 52°
2026-04-15 05:41 34.23162 135.25071 11006 ft 372 kts 43°
2026-04-15 05:41 34.25087 135.27056 10825 ft 358 kts 33°
2026-04-15 05:41 34.27122 135.28708 10718 ft 348 kts 32°
2026-04-15 05:42 34.29138 135.30319 10557 ft 344 kts 32°
2026-04-15 05:42 34.31093 135.31891 10438 ft 330 kts 32°
2026-04-15 05:42 34.32967 135.33405 10310 ft 318 kts 32°
2026-04-15 05:42 34.34752 135.34850 10161 ft 307 kts 33°
2026-04-15 05:43 34.36503 135.36264 10042 ft 298 kts 32°
2026-04-15 05:43 34.38206 135.37651 9769 ft 294 kts 33°
2026-04-15 05:43 34.39891 135.39029 9462 ft 290 kts 33°
2026-04-15 05:43 34.41549 135.40382 9171 ft 286 kts 33°
2026-04-15 05:44 34.43140 135.41809 8857 ft 283 kts 46°
2026-04-15 05:44 34.44096 135.43836 8586 ft 275 kts 75°
2026-04-15 05:44 34.44475 135.46076 8325 ft 269 kts 83°
2026-04-15 05:44 34.44758 135.48296 8042 ft 266 kts 82°
2026-04-15 05:45 34.45119 135.50499 7781 ft 269 kts 79°
2026-04-15 05:45 34.45589 135.52715 7502 ft 274 kts 76°
2026-04-15 05:45 34.46150 135.54858 7401 ft 258 kts 72°
2026-04-15 05:45 34.46757 135.56821 7259 ft 240 kts 70°
2026-04-15 05:46 34.47392 135.58617 7114 ft 223 kts 67°
2026-04-15 05:46 34.48053 135.60292 6634 ft 224 kts 65°
2026-04-15 05:46 34.48777 135.61939 6302 ft 219 kts 63°
2026-04-15 05:46 34.49540 135.63523 6013 ft 217 kts 61°
2026-04-15 05:47 34.50323 135.65072 5742 ft 213 kts 62°
2026-04-15 05:47 34.51107 135.66582 5497 ft 211 kts 57°
2026-04-15 05:47 34.51972 135.67967 5366 ft 206 kts 53°
2026-04-15 05:47 34.52904 135.69275 5235 ft 205 kts 44°
2026-04-15 05:48 34.54148 135.70106 5174 ft 207 kts 16°
2026-04-15 05:48 34.55595 135.70214 5085 ft 212 kts 349°
2026-04-15 05:48 34.56960 135.69576 4992 ft 212 kts 324°
2026-04-15 05:48 34.58077 135.68435 4883 ft 208 kts 316°
2026-04-15 05:49 34.59171 135.67319 4804 ft 202 kts 314°
2026-04-15 05:49 34.60095 135.66029 4692 ft 208 kts 307°
2026-04-15 05:49 34.61081 135.64720 4423 ft 209 kts 314°
2026-04-15 05:49 34.62105 135.63505 4170 ft 202 kts 313°
2026-04-15 05:50 34.63107 135.62308 3879 ft 201 kts 314°
2026-04-15 05:50 34.64087 135.61126 3618 ft 195 kts 313°
2026-04-15 05:50 34.65908 135.58916 3107 ft 175 kts 314°
2026-04-15 05:51 34.66757 135.57884 2891 ft 171 kts 315°
2026-04-15 05:51 34.67583 135.56882 2686 ft 165 kts 315°
2026-04-15 05:51 34.68382 135.55911 2478 ft 161 kts 315°
2026-04-15 05:51 34.69172 135.54952 2251 ft 161 kts 317°
2026-04-15 05:52 34.69970 135.53983 2040 ft 163 kts 316°
2026-04-15 05:52 34.70771 135.53011 1832 ft 162 kts 317°
2026-04-15 05:52 34.71556 135.52058 1623 ft 160 kts 319°
2026-04-15 05:52 34.72346 135.51101 1418 ft 161 kts 319°
2026-04-15 05:53 34.73134 135.50144 1202 ft 158 kts 318°
2026-04-15 05:53 34.73902 135.49213 989 ft 153 kts 318°
2026-04-15 05:53 34.74649 135.48306 781 ft 153 kts 318°
2026-04-15 05:53 34.75396 135.47399 579 ft 150 kts 319°
2026-04-15 05:54 34.75993 135.46372 610 ft 156 kts 300°
2026-04-15 05:54 34.76446 135.45188 771 ft 153 kts 304°
2026-04-15 05:54 34.77067 135.44097 702 ft 157 kts 314°
2026-04-15 05:54 34.77775 135.43061 614 ft 160 kts 313°
2026-04-15 05:55 34.78450 135.42110 675 ft 140 kts 315°
2026-04-15 05:55 34.79007 135.41142 643 ft 144 kts 301°
2026-04-15 05:55 34.79511 135.40088 763 ft 142 kts 321°
2026-04-15 05:55 34.80368 135.40011 654 ft 137 kts 52°
2026-04-15 05:56 34.80100 135.40956 544 ft 152 kts 156°
2026-04-15 05:56 34.79432 135.41780 1136 ft 142 kts 108°
2026-04-15 05:56 34.78906 135.42939 1058 ft 155 kts 120°
2026-04-15 05:56 34.78413 135.43884 1789 ft 113 kts 122°
2026-04-15 05:57 34.77922 135.44639 1926 ft 124 kts 127°
2026-04-15 05:57 34.77390 135.45605 1720 ft 145 kts 112°
2026-04-15 05:57 34.77030 135.46711 1803 ft 138 kts 107°
2026-04-15 05:57 34.76762 135.47838 1938 ft 137 kts 107°
2026-04-15 05:58 34.76222 135.48804 1837 ft 148 kts 139°
2026-04-15 05:58 34.75231 135.49268 1522 ft 161 kts 175°
2026-04-15 05:58 34.74272 135.48696 1222 ft 165 kts 237°
2026-04-15 05:58 34.74198 135.47384 1093 ft 154 kts 300°
2026-04-15 05:59 34.74975 135.46550 869 ft 149 kts 328°
2026-04-15 05:59 34.75747 135.45762 670 ft 142 kts 319°
2026-04-15 05:59 34.76297 135.44858 662 ft 124 kts 290°
2026-04-15 05:59 34.76376 135.43726 976 ft 154 kts 271°
2026-04-15 06:00 34.76354 135.42325 851 ft 174 kts 270°
2026-04-15 06:00 34.76345 135.40849 737 ft 169 kts 274°
2026-04-15 06:00 34.76512 135.39542 912 ft 148 kts 298°
2026-04-15 06:00 34.77217 135.38737 1405 ft 130 kts 332°
2026-04-15 06:01 34.78012 135.38161 1428 ft 147 kts 349°
2026-04-15 06:01 34.78941 135.38436 1342 ft 132 kts 38°
2026-04-15 06:01 34.79504 135.39353 1147 ft 144 kts 72°
2026-04-15 06:01 34.79583 135.40586 797 ft 148 kts 94°
2026-04-15 06:02 34.79396 135.41774 533 ft 138 kts 99°
2026-04-15 06:02 34.79102 135.42872 222 ft 139 kts 121°
2026-04-15 06:02 34.78455 135.43693 71 ft 126 kts 131°
2026-04-15 06:02 34.77920 135.44345 49 ft 80 kts 136°
2026-04-15 06:03 34.77677 135.44635 49 ft 19 kts 133°
2026-04-15 06:03 34.77554 135.44790 48 ft 33 kts 135°
2026-04-15 06:03 34.77447 135.44919 51 ft 11 kts 128°
2026-04-15 06:03 34.77456 135.45003 49 ft 11 kts 40°
2026-04-15 06:04 34.77527 135.45004 48 ft 11 kts 339°
2026-04-15 06:04 34.77612 135.44956 47 ft 15 kts 334°
2026-04-15 06:04 34.77704 135.44897 49 ft 15 kts 326°
2026-04-15 06:04 34.77779 135.44817 49 ft 14 kts 315°
2026-04-15 06:05 34.77846 135.44736 49 ft 13 kts 315°
2026-04-15 06:05 34.77910 135.44657 46 ft 13 kts 315°
2026-04-15 06:05 34.77973 135.44581 49 ft 13 kts 315°
2026-04-15 06:05 34.78034 135.44507 49 ft 12 kts 315°
2026-04-15 06:06 34.78095 135.44435 49 ft 12 kts 315°
2026-04-15 06:06 34.78152 135.44363 49 ft 12 kts 314°
2026-04-15 06:06 34.78225 135.44334 49 ft 11 kts 358°
2026-04-15 06:06 34.78303 135.44335 50 ft 11 kts
2026-04-15 06:07 34.78379 135.44335 50 ft 11 kts
2026-04-15 06:07 34.78453 135.44336 48 ft 10 kts
2026-04-15 06:07 34.78524 135.44336 49 ft 10 kts
2026-04-15 06:07 34.78588 135.44310 48 ft 10 kts 322°
2026-04-15 06:08 34.78637 135.44254 49 ft 10 kts 316°
2026-04-15 06:08 34.78684 135.44198 46 ft 9 kts 314°
2026-04-15 06:08 34.78726 135.44145 49 ft 9 kts 315°
2026-04-15 06:08 34.78768 135.44095 49 ft 8 kts 315°
2026-04-15 06:09 34.78809 135.44046 49 ft 8 kts 316°
2026-04-15 06:09 34.78849 135.43999 48 ft 8 kts 315°
2026-04-15 06:09 34.78889 135.43959 46 ft 8 kts 341°
2026-04-15 06:09 34.78926 135.43975 48 ft 6 kts 49°
2026-04-15 06:10 34.78930 135.44022 49 ft 6 kts 104°
2026-04-15 06:10 34.78913 135.44049 49 ft 4 kts 152°
2026-04-15 06:10 34.78887 135.44059 48 ft 0 kts 167°